Hourly Data Report for October 17, 2015

All times are specified in Local Standard Time (LST). Add 1 hour to adjust for Daylight Saving Time where and when it is observed.

RESOLUTE BAY A
NUNAVUT

74°43'01.000" N
94°58'10.000" W
67.70 m
2403498
71924
YRB

Download Data

Hourly Data (October 2015)
Hourly Data Report for October 17, 2015
Temp Definition
°C
Dew Point Temp Definition
°C
Rel Hum Definition
%
Wind Dir Definition
10's deg

Wind Spd Definition
km/h
Visibility Definition
km
Stn Press Definition
kPa
Hmdx Definition


Wind Chill Definition


Weather Definition


TIME
00:00 Legend Double Dagger -14.8 -17.2 82 35 16 16.1 100.24   -23 Snow
01:00 Legend Double Dagger -14.1 -16.1 85 35 15 16.1 100.25   -22 Snow
02:00 Legend Double Dagger -13.2 -15.1 86 35 16 16.1 100.29   -21 Snow
03:00 Legend Double Dagger -13.0 -15.0 85 32 25 16.1 100.29   -23 Snow
04:00 Legend Double Dagger -13.5 -15.4 86 34 33 16.1 100.29   -25 Snow
05:00 Legend Double Dagger -13.6 -15.8 84 34 28 16.1 100.31   -24 Snow
06:00 Legend Double Dagger -13.4 -15.6 84 35 29 16.1 100.27   -24 Snow
07:00 Legend Double Dagger -13.1 -15.6 82 34 25 16.1 100.25   -23 Snow
08:00 Legend Double Dagger -13.1 -15.6 82 35 21 6.4 100.21   -22 Snow
09:00 Legend Double Dagger -12.9 -15.1 84 35 19 16.1 100.19   -21 Cloudy
10:00 Legend Double Dagger -12.2 -14.7 82 33 23 12.9 100.18   -21 LegendNANA
11:00 Legend Double Dagger -12.5 -14.5 85 35 16 12.9 100.17   -20 LegendNANA
12:00 Legend Double Dagger -12.3 -14.8 82 36 18 6.4 100.16   -20 Snow
13:00 Legend Double Dagger -12.1 -14.4 83 35 16 6.4 100.16   -20 Snow
14:00 Legend Double Dagger -12.0 -14.0 85 32 7 6.4 100.15   -16 Snow
15:00 Legend Double Dagger -12.0 -14.0 85 35 4 6.4 100.12   -15 Snow
16:00 Legend Double Dagger -11.0 -12.9 86 2 4 6.4 100.10   -13 Snow
17:00 Legend Double Dagger -11.0 -12.5 89 13 3 12.9 100.06   -13 LegendNANA
18:00 Legend Double Dagger -10.5 -11.8 90 12 6 6.4 100.04   -14 Snow
19:00 Legend Double Dagger -9.6 -11.1 89 7 6 3.2 100.02   -13 Snow
20:00 Legend Double Dagger -9.6 -11.2 88 36 4 4.0 100.00   -12 Snow
21:00 Legend Double Dagger -10.7 -12.2 89 36 4 6.4 99.98   -13 Snow
22:00 Legend Double Dagger -11.0 -12.5 89 2 3 9.7 99.99   -13 Snow
23:00 Legend Double Dagger -10.7 -12.6 86 5 10 9.7 100.01   -16 Snow

Notes on Data Quality.

Legend

  • E = Estimated
  • M = Missing
  • NA = Not Available
  • ‡ = Partner data that is not subject to review by the National Climate Archives
Date modified: